College Station, TX

10:37 PM CDT on June 22, 2017 (GMT -0500)
Easterwood

Weather History for KCLL - March, 2013

Change the Weather History Date:

Sunday, March 3, 2013

  Actual Average Record
Temperature  
Mean Temperature 54 °F 58 °F  
Max Temperature 72 °F 68 °F 86 °F (1905)
Min Temperature 36 °F 48 °F 17 °F (1943)
Degree Days  
Heating Degree Days 11 8  
Month to date heating degree days 46 24  
Since 1 July heating degree days 1105 1411  
Cooling Degree Days 0 1  
Month to date cooling degree days 0 3  
Year to date cooling degree days 35 31  
Growing Degree Days 4 (Base 50)    
Moisture  
Dew Point 32 °F    
Average Humidity 48    
Maximum Humidity 72    
Minimum Humidity 23    
Precipitation  
Precipitation 0.00 in 0.10 in 1.23 in (1950)
Month to date precipitation 0.00 0.29  
Year to date precipitation 6.16 6.38  
Sea Level Pressure  
Sea Level Pressure 30.13 in    
Wind  
Wind Speed 10 mph (South)    
Max Wind Speed 22 mph    
Max Gust Speed 29 mph    
Visibility 10 miles    
Events      
T = Trace of Precipitation, MM = Missing Value Source: NWS Daily Summary

Daily Weather History Graph

Daily Weather History Graph

Search for Another Location

Airport or City:

Trip Planner

Search our weather history database for the weather conditions in past years. The results will help you decide how hot, cold, wet, or windy it might be!

Date:

Astronomy

Mar. 03, 2013 Rise Set
Actual Time 6:49 AM CST 6:25 PM CST
Civil Twilight 6:25 AM CST 6:49 PM CST
Nautical Twilight 5:57 AM CST 7:17 PM CST
Astronomical Twilight 5:29 AM CST 7:45 PM CST
Moon No Moon Rise 10:32 AM CST (3/3)
Length of Visible Light 12h 24m
Length of Day
11h 36m
Waning Gibbous, 63% of the Moon is Illuminated
Mar 3
Waning Gibbous
Mar 4
Last Quarter
Mar 11
New
Mar 19
First Quarter
Mar 27
Full

Hourly Weather History & Observations

Time (CST) Temp. Windchill Dew Point Humidity Pressure Visibility Wind Dir Wind Speed Gust Speed Precip Events Conditions
12:53 AM 37.9 °F - 27.0 °F 65% 30.27 in 10.0 mi Calm Calm - N/A   Clear
1:53 AM 37.0 °F - 25.0 °F 62% 30.27 in 10.0 mi Calm Calm - N/A   Clear
2:53 AM 37.0 °F - 25.0 °F 62% 30.25 in 10.0 mi Calm Calm - N/A   Clear
3:53 AM 37.0 °F - 25.0 °F 62% 30.25 in 10.0 mi Calm Calm - N/A   Clear
4:53 AM 37.0 °F - 26.1 °F 65% 30.24 in 10.0 mi Calm Calm - N/A   Clear
5:53 AM 37.0 °F - 24.1 °F 59% 30.25 in 10.0 mi Calm Calm - N/A   Clear
6:53 AM 37.0 °F - 23.0 °F 57% 30.26 in 10.0 mi Calm Calm - N/A   Clear
7:53 AM 41.0 °F 39.0 °F 28.0 °F 60% 30.27 in 10.0 mi SE 3.5 mph - N/A   Clear
8:53 AM 48.0 °F - 24.1 °F 39% 30.26 in 10.0 mi South 6.9 mph - N/A   Clear
9:53 AM 53.1 °F - 24.1 °F 32% 30.26 in 10.0 mi South 11.5 mph - N/A   Clear
10:53 AM 57.9 °F - 24.1 °F 27% 30.23 in 10.0 mi South 13.8 mph 21.9 mph N/A   Clear
11:53 AM 61.0 °F - 25.0 °F 25% 30.19 in 10.0 mi South 18.4 mph 21.9 mph N/A   Clear
12:53 PM 64.9 °F - 27.0 °F 24% 30.14 in 10.0 mi SSW 13.8 mph 25.3 mph N/A   Clear
1:53 PM 66.9 °F - 28.0 °F 23% 30.10 in 10.0 mi South 13.8 mph 24.2 mph N/A   Clear
2:53 PM 69.1 °F - 30.0 °F 23% 30.07 in 10.0 mi South 17.3 mph 23.0 mph N/A   Clear
3:53 PM 71.1 °F - 35.1 °F 27% 30.04 in 10.0 mi South 11.5 mph - N/A   Clear
4:53 PM 70.0 °F - 37.0 °F 30% 30.01 in 10.0 mi South 18.4 mph 26.5 mph N/A   Clear
5:53 PM 68.0 °F - 42.1 °F 39% 29.99 in 10.0 mi SSE 19.6 mph 25.3 mph N/A   Clear
6:53 PM 64.9 °F - 43.0 °F 45% 29.99 in 10.0 mi South 15.0 mph 23.0 mph N/A   Clear
7:53 PM 61.0 °F - 43.0 °F 52% 29.99 in 10.0 mi South 18.4 mph - N/A   Clear
8:53 PM 59.0 °F - 44.1 °F 58% 29.98 in 10.0 mi South 19.6 mph - N/A   Clear
9:53 PM 57.0 °F - 45.0 °F 64% 29.98 in 10.0 mi South 17.3 mph 26.5 mph N/A   Clear
10:53 PM 55.9 °F - 46.0 °F 69% 29.97 in 10.0 mi South 13.8 mph - N/A   Clear
11:53 PM 55.0 °F - 46.9 °F 74% 29.96 in 10.0 mi South 12.7 mph - N/A   Clear